Regional Weather Roundup
Issued by NWS

Home | Current Version | Previous Version | Graphics & Text | Print | Product List | Glossary Off
Versions: 1 2 3 4 5 6 7 8 9 10 11 12 13 14 15 16 17 18 19 20 21 22 23 24 25 26 27 28 29 30 31 32 33 34 35 36 37 38 39 40 41 42 43 44 45 46 47 48 49 50

000
ASUS43 KTOP 220859
RWRKS

WEATHER ROUNDUP FOR KANSAS
NATIONAL WEATHER SERVICE GOODLAND KS
400 AM CDT MON SEP 22 2014

NOTE:  "FAIR" INDICATES FEW OR NO CLOUDS BELOW 12,000 FEET WITH NO
SIGNIFICANT WEATHER AND/OR OBSTRUCTIONS TO VISIBILITY.

KSZ001>006-013>018-027>032-041>047-221000-
NORTHWEST KANSAS

CITY           SKY/WX    TMP DP  RH WIND       PRES   REMARKS
GOODLAND       PTCLDY    52  43  71 S7        30.31S
HAYS           CLOUDY    55  43  62 E6        30.30S
HILL CITY      CLOUDY    55  46  71 CALM      30.30S
RUSSELL        CLEAR     49  45  86 E3        30.29S
$$

KSZ061>065-074>080-084>089-221000-
SOUTHWEST KANSAS

CITY           SKY/WX    TMP DP  RH WIND       PRES   REMARKS
DODGE CITY     PTCLDY    56  40  55 S3        30.30S
ELKHART          N/A     54  45  72 SE9         N/A
GARDEN CITY    PTCLDY    55  44  66 SE5       30.30S
GREAT BEND     PTCLDY    55  45  67 E3        30.30S
LIBERAL        PTCLDY    59  41  51 E3        30.32R
PRATT          CLEAR     55  41  58 E6        30.30S
$$

KSZ066>073-081>083-090>101-221000-
SOUTHEAST KANSAS

CITY           SKY/WX    TMP DP  RH WIND       PRES   REMARKS
CHANUTE        CLEAR     53  50  89 N5        30.25F
HUTCHINSON     CLEAR     53  46  77 E3        30.29R
NEWTON         PTCLDY    55  45  67 E6        30.30S
PARSONS        CLEAR     50  49  96 CALM      30.26R
WICHITA INTL   PTCLDY    59  46  62 E7        30.27R
WICHITA JABRA  CLEAR     52  46  80 NE5       30.27S
WINFIELD       CLEAR     58  49  72 E5        30.27R
$$

KSZ007>012-019>026-033>040-048>060-102>105-221000-
NORTHEAST KANSAS

CITY           SKY/WX    TMP DP  RH WIND       PRES   REMARKS
CONCORDIA      CLEAR     51  46  83 CALM      30.29S
EMPORIA        CLEAR     52  49  89 NE6       30.27S
LAWRENCE       CLEAR     47  45  93 NW3       30.27S
MANHATTAN      CLEAR     46  44  93 CALM      30.29R
OLATHE IND     CLEAR     51  48  89 CALM      30.27S
OLATHE EXE     CLEAR     55  49  80 N3        30.26S
SALINA         CLEAR     54  47  77 CALM      30.29S
TOPEKA BILLARD CLEAR     51  48  89 CALM      30.29R
TOPEKA FORBES  CLEAR     48  45  89 W5        30.28R
$$


USA.gov is the U.S. government's official web portal to all federal, state and local government web resources and services.